Time[GMT],current_u[cm/s](16m),current_v[cm/s](16m),current_u[cm/s](24m),current_v[cm/s](24m),current_u[cm/s](32m),current_v[cm/s](32m),current_u[cm/s](40m),current_v[cm/s](40m),current_u[cm/s](48m),current_v[cm/s](48m),current_u[cm/s](56m),current_v[cm/s](56m),current_u[cm/s](64m),current_v[cm/s](64m),current_u[cm/s](72m),current_v[cm/s](72m),current_u[cm/s](80m),current_v[cm/s](80m),current_u[cm/s](88m),current_v[cm/s](88m),current_u[cm/s](96m),current_v[cm/s](96m),current_u[cm/s](104m),current_v[cm/s](104m),current_u[cm/s](112m),current_v[cm/s](112m),current_u[cm/s](120m),current_v[cm/s](120m),current_u[cm/s](128m),current_v[cm/s](128m),current_u[cm/s](136m),current_v[cm/s](136m),current_u[cm/s](144m),current_v[cm/s](144m),current_u[cm/s](152m),current_v[cm/s](152m),current_u[cm/s](160m),current_v[cm/s](160m),current_u[cm/s](168m),current_v[cm/s](168m),current_u[cm/s](176m),current_v[cm/s](176m),current_u[cm/s](184m),current_v[cm/s](184m),current_u[cm/s](192m),current_v[cm/s](192m),current_u[cm/s](200m),current_v[cm/s](200m)
2008-04-19 17:00,19.38,-17.83,23.34,-11.52,24.59,-15.10,26.36,-27.14,32.25,-29.45,37.28,-25.84,40.42,-25.78,40.41,-20.53,45.41,-17.45,44.12,-16.71,40.25,-20.37,39.94,-22.67,45.27,-21.60,53.00,-20.16,52.25,-25.02,46.05,-25.34,48.47,-26.98,50.18,-29.68,56.99,-36.53,59.02,-47.74,55.75,-51.63,49.43,-51.24,40.23,-54.30,32.23,-47.73
2008-04-19 18:00,11.45,3.26,24.24,9.57,39.15,13.83,41.36,10.86,35.81,6.56,31.10,-1.36,29.61,-16.33,34.57,-22.62,44.76,-24.91,51.63,-24.39,55.40,-20.76,54.49,-22.84,47.92,-27.57,49.49,-29.17,58.01,-30.53,57.50,-36.15,55.77,-41.22,55.05,-43.24,53.46,-53.31,54.78,-64.65,53.88,-69.03,47.67,-67.67,38.55,-62.82,28.72,-53.80
2008-04-19 19:00,43.09,1.23,56.67,8.64,53.90,7.12,46.88,0.87,36.54,-4.86,29.96,-12.86,32.71,-16.17,37.03,-17.20,39.30,-18.05,43.10,-17.46,36.47,-19.70,32.47,-20.66,35.78,-24.12,33.85,-30.51,34.26,-36.05,32.35,-37.30,29.39,-38.56,23.01,-52.37,20.28,-59.55,19.46,-61.92,15.40,-56.81,14.99,-50.96,11.89,-45.86,7.25,-36.32
2008-04-19 20:00,28.64,-6.45,41.33,-6.06,53.84,-7.08,45.23,-8.06,33.96,-9.26,17.69,-13.23,12.67,-15.26,17.63,-18.28,15.81,-20.45,15.28,-22.40,8.35,-22.42,11.26,-25.27,11.89,-28.85,10.63,-33.77,9.28,-36.09,6.24,-42.32,0.47,-48.90,-7.18,-48.31,-9.87,-48.43,-11.97,-44.17,-7.88,-37.29,-6.86,-31.30,-5.34,-24.92,-5.29,-14.93
2008-04-19 21:00,1.53,7.00,17.30,5.98,21.95,5.89,22.90,5.88,17.60,1.45,3.67,-2.60,-15.35,-4.19,-20.43,-5.72,-17.98,-6.82,-18.71,-10.73,-17.90,-13.94,-17.84,-14.44,-18.19,-17.60,-20.36,-19.67,-23.24,-22.16,-29.69,-30.85,-36.16,-32.30,-40.71,-31.87,-39.74,-29.98,-34.28,-25.71,-31.43,-16.60,-29.49,-10.20,-27.62,-4.25,-19.71,-0.45
2008-04-19 22:00,-20.65,37.48,-27.82,32.34,-18.28,22.59,-12.89,18.55,-16.49,12.77,-28.55,14.67,-42.17,18.49,-48.29,17.26,-48.93,10.76,-43.33,8.35,-38.36,5.64,-39.54,2.11,-36.61,1.16,-37.76,-0.15,-43.02,-0.79,-50.96,-1.55,-59.34,-0.67,-60.09,-0.28,-60.10,1.39,-56.45,5.40,-52.52,15.07,-45.74,22.07,-38.18,27.65,-27.61,22.85
2008-04-19 23:00,-34.24,40.57,-38.78,33.45,-33.01,26.58,-27.59,21.81,-33.92,18.31,-43.50,21.01,-54.24,30.90,-59.84,33.62,-62.46,34.56,-59.45,32.06,-53.24,27.12,-46.57,27.27,-49.11,26.35,-45.20,24.66,-41.97,25.39,-46.63,18.32,-54.15,16.54,-60.88,19.52,-65.55,23.91,-61.82,28.67,-54.33,39.69,-46.55,48.81,-39.02,54.48,-27.79,46.01
2008-04-20 00:00,-44.91,33.89,-44.29,38.82,-48.61,31.02,-47.06,19.65,-43.71,10.86,-47.29,12.86,-52.59,25.44,-57.04,35.36,-58.13,42.04,-57.63,44.72,-56.66,41.04,-54.26,34.57,-53.49,30.51,-54.96,26.26,-51.97,24.48,-46.04,23.03,-46.83,20.57,-47.02,20.51,-50.10,25.19,-49.19,30.21,-47.93,38.07,-40.45,45.51,-31.03,50.85,-16.43,43.98
2008-04-20 01:00,-37.95,34.45,-50.01,39.29,-51.69,36.02,-51.90,28.18,-53.34,20.58,-55.23,15.98,-51.88,16.01,-55.69,16.78,-57.69,19.08,-53.81,26.94,-45.91,29.79,-35.31,30.15,-32.79,32.11,-37.16,33.97,-39.15,28.39,-37.58,25.12,-33.55,23.36,-36.92,27.32,-40.03,35.04,-38.89,46.54,-29.39,50.01,-18.12,45.96,-9.81,36.76,-2.82,25.14
2008-04-20 02:00,-27.33,39.33,-40.01,48.07,-42.18,43.07,-41.14,37.20,-43.46,30.68,-46.88,24.65,-49.92,18.74,-50.13,14.15,-51.79,12.15,-52.57,13.58,-47.95,22.42,-41.75,27.66,-29.11,24.26,-12.99,20.83,-12.98,19.15,-17.17,17.17,-17.24,19.36,-15.38,25.00,-21.27,29.30,-21.85,34.68,-10.92,36.30,-2.01,27.19,0.89,17.83,2.80,9.93
2008-04-20 03:00,-6.40,19.27,-10.08,29.11,-11.26,25.27,-11.51,20.46,-13.88,17.07,-18.00,16.49,-21.24,12.51,-21.88,6.31,-19.63,6.51,-13.58,9.92,-2.40,12.04,10.58,7.60,17.76,7.49,14.72,9.45,10.80,10.19,9.37,14.66,13.14,15.67,9.65,20.32,3.63,27.95,8.11,32.64,13.84,27.23,12.34,14.57,11.90,3.82,8.24,-1.45
2008-04-20 04:00,23.22,8.82,18.88,11.52,16.25,10.89,12.77,7.67,8.77,6.70,6.46,6.38,8.00,5.51,7.62,2.76,9.93,-3.11,18.63,-2.74,29.67,-5.39,35.45,-14.24,42.13,-13.46,45.47,-9.45,39.97,-9.01,38.77,-8.56,39.09,-8.56,36.67,-4.61,40.09,4.36,45.63,2.78,41.25,-4.82,37.69,-17.94,34.22,-25.77,29.96,-27.56
2008-04-20 05:00,30.74,0.10,25.20,-0.31,21.75,-3.31,22.83,-3.07,20.38,-1.33,18.05,-3.24,16.56,-6.76,18.43,-11.62,29.68,-12.63,45.35,-14.64,58.56,-23.74,60.87,-28.98,62.61,-32.41,67.58,-28.93,65.03,-30.16,58.39,-33.66,59.70,-32.51,60.72,-31.13,61.66,-26.20,64.95,-25.99,66.01,-33.53,62.92,-43.87,55.47,-48.15,46.80,-49.25
2008-04-20 06:00,30.42,-17.54,30.36,-16.72,24.85,-14.60,20.56,-19.23,25.86,-20.37,37.53,-20.40,50.36,-27.00,55.83,-30.60,56.72,-33.04,65.42,-29.72,66.03,-31.31,57.82,-33.53,55.58,-38.98,57.45,-38.59,55.06,-34.42,59.59,-30.55,66.33,-42.04,64.66,-55.17,60.18,-60.50,53.70,-59.95,45.86,-56.80,40.30,-53.54,36.92,-50.22,31.54,-39.34
2008-04-20 07:00,36.47,-13.81,35.56,-12.63,31.37,-11.35,25.22,-12.80,25.56,-13.53,33.38,-13.02,46.71,-14.62,52.64,-26.90,50.17,-38.51,47.44,-39.80,52.97,-42.96,52.85,-45.52,46.21,-48.39,41.42,-51.82,42.39,-50.56,41.75,-50.87,42.16,-54.10,38.40,-64.97,33.96,-72.07,28.17,-71.72,22.27,-70.68,22.24,-67.64,20.18,-62.21,18.14,-49.95
2008-04-20 08:00,41.78,-5.18,38.96,-8.50,21.66,-14.47,11.88,-17.72,16.18,-15.71,26.88,-25.50,29.69,-34.89,28.83,-37.79,27.26,-39.77,29.07,-42.13,24.32,-43.03,20.80,-41.22,18.91,-39.93,11.25,-43.86,5.54,-44.75,6.72,-47.42,11.70,-51.17,8.39,-59.17,3.31,-63.32,1.23,-62.73,-0.84,-61.82,-1.09,-55.81,-1.51,-47.64,-1.51,-36.51
2008-04-20 09:00,25.28,-10.68,20.50,-13.79,15.25,-8.23,4.36,-9.31,4.24,-8.30,11.71,-10.63,20.58,-12.40,20.19,-19.04,16.61,-28.17,11.38,-28.90,11.19,-31.91,9.77,-31.73,4.16,-32.27,-2.09,-32.08,-1.37,-35.31,-0.49,-38.07,-2.62,-42.54,-8.66,-48.26,-13.32,-46.18,-14.44,-47.59,-14.12,-47.28,-13.55,-44.16,-12.55,-39.74,-8.70,-28.84
2008-04-20 10:00,-17.67,8.92,-15.40,9.03,-17.40,13.95,-29.58,18.54,-35.05,19.21,-31.33,20.71,-23.52,18.29,-14.29,14.42,-10.81,9.45,-14.97,2.13,-17.51,-1.74,-18.96,-4.72,-18.99,-7.25,-20.75,-8.66,-25.95,-7.18,-31.03,-6.39,-33.51,-10.13,-36.07,-12.63,-42.20,-12.81,-45.26,-12.12,-41.34,-12.22,-37.82,-10.78,-32.17,-6.13,-20.68,2.92
2008-04-20 11:00,-21.12,11.81,-23.45,18.41,-30.56,22.22,-40.60,28.66,-38.29,28.98,-34.48,27.58,-31.14,23.72,-24.96,19.50,-24.48,13.78,-31.53,5.63,-34.27,3.70,-35.75,4.06,-34.67,2.00,-35.53,4.66,-39.53,3.06,-42.91,5.76,-48.18,7.11,-52.37,11.65,-54.32,9.55,-52.96,9.88,-45.78,12.40,-37.97,17.85,-29.90,21.80,-18.39,21.30
2008-04-20 12:00,-48.50,21.19,-48.95,23.57,-54.44,27.26,-53.87,33.33,-53.39,33.80,-53.09,35.15,-47.95,39.75,-43.40,39.32,-41.24,33.92,-44.28,25.06,-50.96,16.09,-56.90,8.09,-56.21,7.26,-46.54,9.21,-41.08,8.55,-46.65,8.23,-52.10,13.42,-53.79,17.07,-52.43,20.03,-47.44,22.47,-40.60,28.98,-36.86,32.70,-29.52,35.68,-15.16,33.15
2008-04-20 13:00,-51.87,22.21,-54.04,26.03,-47.77,35.29,-43.47,41.50,-41.96,43.03,-43.87,42.10,-43.30,42.60,-44.19,44.73,-40.40,38.49,-45.40,27.23,-50.89,22.10,-52.78,17.19,-49.34,19.55,-48.01,19.67,-48.14,22.04,-49.01,29.01,-54.33,34.44,-55.01,36.22,-48.02,38.67,-42.71,41.11,-33.99,46.01,-27.10,46.12,-20.58,43.49,-9.81,30.88
2008-04-20 14:00,-47.78,26.15,-42.70,24.73,-40.41,34.60,-43.65,36.50,-42.76,36.68,-40.85,37.93,-38.54,41.19,-37.37,40.83,-28.79,39.28,-24.98,23.49,-32.36,19.33,-35.98,17.54,-35.21,21.67,-32.37,21.01,-31.51,15.72,-31.87,20.43,-28.31,30.93,-26.04,41.21,-28.24,39.88,-27.38,35.22,-18.94,34.46,-7.43,34.27,-1.41,26.64,6.54,19.53
2008-04-20 15:00,-23.33,15.41,-23.97,22.97,-22.42,25.99,-24.74,27.66,-21.58,27.31,-21.72,25.79,-22.50,27.54,-22.13,29.34,-13.29,24.72,-7.39,12.23,-8.64,2.69,-11.46,4.30,-9.74,8.74,-0.68,12.91,1.63,9.66,-4.30,2.61,-3.28,9.24,4.14,19.50,5.23,20.69,-1.35,20.57,3.09,13.60,8.98,5.40,17.36,-3.35,19.14,-7.93
2008-04-20 16:00,10.63,5.83,17.15,9.08,16.77,12.21,14.44,12.93,16.67,14.17,16.01,11.97,14.12,10.31,20.06,6.55,24.71,-4.67,24.48,-17.35,23.89,-13.23,34.26,-10.53,41.17,-9.47,36.81,-11.60,38.47,-7.61,42.71,-1.20,40.47,2.18,39.10,6.78,36.89,-1.39,38.18,-8.01,41.39,-17.38,40.60,-23.73,39.29,-24.88,35.05,-24.45
2008-04-20 17:00,18.98,-2.84,20.00,0.85,24.10,0.18,20.97,-2.51,20.33,-6.08,18.81,-9.51,25.04,-6.35,31.72,-17.02,32.08,-24.99,35.38,-29.71,47.03,-30.69,53.81,-26.94,54.40,-27.80,50.81,-29.37,52.33,-21.01,55.30,-15.54,54.21,-16.41,46.29,-17.59,48.00,-20.93,53.03,-26.46,56.45,-33.86,57.60,-41.69,55.62,-43.69,45.04,-39.52
2008-04-20 18:00,18.85,-0.15,19.68,0.54,19.58,-2.11,21.99,-7.64,22.33,-5.12,26.84,-20.47,26.28,-28.22,22.81,-24.92,27.52,-27.50,42.97,-31.78,49.83,-32.52,45.36,-36.59,47.35,-36.58,53.61,-31.21,50.70,-36.55,46.29,-46.69,47.69,-51.06,57.39,-54.78,58.69,-60.77,57.18,-65.56,56.90,-68.28,55.10,-67.28,49.49,-62.88,36.82,-47.94
2008-04-20 19:00,43.53,3.79,41.51,4.19,41.59,0.65,42.81,-0.85,43.97,-5.10,45.60,-11.51,39.73,-22.32,36.65,-31.40,38.26,-25.95,42.89,-30.55,46.84,-39.58,44.80,-49.89,43.44,-52.85,49.13,-52.60,49.48,-52.07,46.49,-54.50,39.94,-57.02,33.82,-64.13,34.68,-66.80,37.93,-72.68,35.28,-78.47,32.50,-80.62,29.46,-78.66,24.72,-66.84
2008-04-20 20:00,46.32,4.58,40.73,0.05,35.68,-4.82,32.78,-7.23,27.47,-15.23,18.61,-21.33,13.87,-24.22,15.56,-28.51,17.38,-35.80,16.47,-37.25,16.40,-38.64,21.24,-40.65,17.84,-42.16,12.74,-42.96,7.55,-46.41,5.82,-48.55,9.60,-50.17,10.56,-54.16,7.47,-59.25,2.87,-60.62,3.18,-55.38,2.50,-51.29,3.14,-45.10,1.91,-33.10
2008-04-20 21:00,33.57,-10.33,30.99,-14.10,27.88,-12.58,21.52,-13.05,14.93,-16.42,6.47,-21.13,-0.61,-20.68,0.14,-24.32,0.80,-30.62,4.84,-25.86,7.36,-26.52,4.44,-30.19,-1.89,-38.94,0.20,-38.58,-0.13,-37.85,1.30,-39.70,-3.83,-45.97,-6.57,-44.96,-8.28,-42.57,-9.09,-38.42,-8.29,-34.70,-4.54,-30.02,-2.45,-24.42,-1.77,-16.74
2008-04-20 22:00,8.28,-0.28,-2.78,-2.78,-9.60,1.43,-10.44,2.11,-13.30,0.87,-18.67,-1.06,-27.31,-7.19,-35.76,-7.70,-30.99,-5.22,-26.79,-11.75,-21.52,-16.05,-15.78,-11.37,-21.19,-14.79,-23.95,-21.24,-24.26,-22.91,-22.71,-25.78,-28.69,-23.50,-36.59,-19.83,-38.63,-15.76,-35.92,-13.42,-34.63,-11.54,-31.11,-7.78,-27.27,-6.66,-23.70,-4.35
2008-04-20 23:00,-17.72,-6.95,-20.95,1.15,-22.76,9.39,-21.09,14.97,-25.76,18.41,-30.99,17.67,-37.13,13.60,-45.70,10.85,-50.01,16.40,-47.40,17.44,-42.03,5.62,-38.84,-3.02,-35.84,-0.90,-32.60,0.14,-38.20,-3.02,-42.29,-0.76,-46.29,3.20,-46.87,5.33,-47.85,5.12,-44.61,6.79,-42.18,6.73,-40.72,6.78,-36.48,9.92,-25.95,6.90
2008-04-21 00:00,-23.32,7.22,-24.81,15.45,-27.43,21.65,-33.17,23.17,-36.88,22.29,-41.91,21.94,-45.86,22.14,-46.89,20.44,-47.54,16.24,-50.92,14.32,-54.55,19.77,-52.69,16.59,-52.11,3.33,-53.64,2.52,-54.97,7.66,-49.43,11.65,-50.03,11.88,-51.19,14.86,-52.91,19.56,-52.99,23.74,-49.75,25.41,-45.14,30.35,-39.89,33.30,-29.14,30.24
2008-04-21 01:00,-44.32,6.88,-40.96,16.99,-42.59,26.34,-53.83,30.92,-57.77,29.45,-53.06,28.86,-54.01,31.50,-52.37,31.60,-54.15,33.24,-56.34,33.17,-61.04,33.76,-57.00,30.64,-57.79,21.99,-57.37,22.65,-58.14,27.02,-62.34,30.92,-65.64,30.08,-64.56,30.32,-58.16,28.70,-51.97,33.31,-46.61,37.23,-42.65,41.24,-36.52,40.47,-23.92,32.97
2008-04-21 02:00,-26.50,5.99,-26.84,15.54,-37.06,23.50,-45.72,23.66,-43.01,22.42,-43.67,22.84,-44.94,25.48,-46.84,25.19,-46.36,23.03,-48.94,21.57,-49.58,26.20,-40.37,21.70,-37.76,13.92,-40.12,18.63,-42.22,31.71,-43.49,42.23,-44.69,47.93,-39.67,47.02,-36.90,37.73,-34.25,28.18,-25.96,25.90,-19.04,25.92,-15.23,20.95,-9.24,16.99
2008-04-21 03:00,4.77,13.61,-4.69,24.75,-8.73,25.55,-7.64,21.49,-7.64,24.12,-7.34,25.16,-8.06,29.03,-9.45,26.16,-11.48,22.36,-13.42,21.84,-11.91,24.01,-10.81,20.26,-4.62,10.80,-6.90,10.70,-4.20,20.29,5.05,33.66,7.94,42.98,5.99,41.20,5.06,34.60,2.37,25.65,4.39,16.43,12.07,10.18,15.59,5.74,15.78,5.80
2008-04-21 04:00,-2.77,7.30,-3.69,6.90,-1.71,5.65,-2.57,7.37,-0.14,10.25,0.52,12.77,-0.48,10.66,-2.79,8.03,-1.69,6.91,6.06,9.93,13.22,8.55,18.51,6.15,15.13,-4.28,9.65,-2.26,14.01,6.07,25.67,7.40,34.45,4.24,29.48,9.26,18.06,9.16,11.18,4.75,10.82,-5.56,15.64,-13.04,15.75,-16.68,15.59,-17.16
2008-04-21 05:00,28.90,-0.38,28.31,-2.46,29.41,-6.21,30.91,-4.36,31.02,-0.44,30.73,1.78,30.28,-1.73,27.48,-6.09,33.48,-6.47,45.67,-14.01,42.49,-18.18,35.14,-19.17,36.73,-15.62,44.88,-13.84,46.91,-13.61,40.96,-5.55,36.12,-8.46,32.74,-10.70,34.96,-13.04,38.55,-17.35,40.11,-21.57,37.92,-22.27,37.77,-25.05,34.24,-20.62
2008-04-21 06:00,32.76,-14.37,34.56,-14.42,35.07,-11.43,33.25,-12.96,30.67,-14.73,39.34,-16.88,50.44,-25.61,45.80,-31.09,40.26,-31.19,42.68,-26.94,51.78,-27.80,51.64,-34.89,50.31,-35.00,47.61,-32.82,41.26,-29.71,44.87,-34.43,51.11,-36.84,58.46,-38.47,63.19,-45.35,60.24,-48.93,55.97,-49.35,53.66,-48.73,52.41,-47.76,46.85,-44.51
2008-04-21 07:00,37.66,-14.59,41.22,-15.54,39.49,-15.05,39.26,-15.65,40.41,-17.59,56.42,-25.58,59.05,-36.39,51.46,-38.93,47.88,-33.99,48.92,-34.60,45.70,-42.88,42.42,-45.09,45.44,-48.95,52.16,-53.20,55.79,-53.72,60.04,-53.19,64.13,-54.50,65.39,-58.41,63.04,-64.52,57.81,-65.88,55.83,-66.94,51.59,-65.15,51.77,-63.10,47.24,-55.20
2008-04-21 08:00,29.53,-6.59,27.35,-8.65,27.26,-5.43,25.79,-7.05,23.33,-9.21,28.61,-9.61,34.96,-18.60,33.02,-31.20,22.58,-36.97,20.37,-30.74,18.02,-37.49,12.27,-40.17,10.15,-40.12,12.34,-50.86,18.58,-55.90,20.29,-55.35,24.99,-53.63,27.59,-56.15,22.42,-62.96,18.54,-62.32,15.74,-60.80,14.69,-58.83,14.07,-57.24,11.70,-48.86
2008-04-21 09:00,27.84,0.96,34.62,1.77,37.65,1.80,33.78,0.45,32.73,-0.20,33.73,-3.98,32.27,-4.34,28.51,-7.34,29.55,-18.45,22.55,-28.05,14.89,-28.72,12.63,-24.62,8.16,-31.62,3.92,-34.45,5.26,-45.16,9.30,-56.77,8.21,-58.28,11.24,-56.26,12.30,-57.60,5.27,-60.90,2.30,-58.18,2.66,-56.70,4.30,-53.97,6.65,-44.60
2008-04-21 10:00,10.78,8.61,13.39,4.41,11.06,-0.76,8.14,1.14,5.07,0.58,1.32,2.10,-2.34,0.41,-4.65,-5.48,-11.31,-16.13,-18.30,-13.33,-17.75,-11.79,-18.97,-16.49,-17.75,-15.05,-15.50,-20.10,-12.80,-24.59,-13.45,-29.42,-14.13,-28.27,-16.72,-24.80,-17.66,-24.16,-18.28,-22.57,-18.04,-21.02,-14.69,-18.69,-15.09,-17.76,-14.45,-14.20
2008-04-21 11:00,-16.43,15.84,-15.54,7.83,-16.21,4.35,-19.14,7.93,-20.54,7.06,-24.47,6.22,-24.87,4.83,-28.50,-0.85,-36.17,-2.16,-41.01,-2.14,-50.83,-3.61,-53.90,-3.55,-51.77,-2.65,-47.18,-2.23,-45.64,-3.10,-43.10,-5.75,-46.08,-5.66,-45.37,-1.96,-42.07,-0.80,-41.58,3.56,-39.79,5.50,-37.99,7.76,-36.14,8.88,-27.20,8.49
2008-04-21 12:00,-23.82,45.08,-24.53,35.50,-27.07,22.82,-25.61,20.24,-26.27,20.66,-28.28,19.70,-31.82,19.61,-32.95,20.51,-39.99,12.37,-44.61,3.53,-50.16,2.80,-55.98,2.61,-65.40,0.22,-64.22,1.12,-55.37,3.65,-55.58,4.63,-56.75,4.36,-53.58,10.84,-49.61,17.79,-49.12,21.83,-45.31,20.74,-40.21,21.86,-37.39,21.92,-32.25,20.63
2008-04-21 13:00,-35.46,30.31,-31.30,29.13,-31.01,30.17,-36.36,31.81,-45.59,29.79,-50.06,28.67,-51.42,26.03,-50.94,26.18,-53.30,24.37,-58.10,16.74,-60.99,15.29,-62.33,19.79,-66.14,24.14,-62.49,28.46,-59.98,23.59,-57.85,28.06,-60.20,38.33,-60.69,45.42,-58.17,44.76,-49.42,46.94,-40.32,48.39,-35.01,48.52,-29.65,46.88,-19.00,34.65
2008-04-21 14:00,-24.01,25.06,-24.44,23.45,-29.09,22.90,-37.58,22.17,-47.86,19.19,-49.98,18.93,-50.56,20.74,-53.98,19.95,-59.30,22.45,-60.82,10.51,-59.13,12.42,-57.33,17.62,-59.42,26.08,-54.62,36.97,-49.37,42.86,-43.45,51.90,-34.84,58.45,-34.40,60.37,-33.88,50.25,-29.59,40.81,-24.31,38.09,-19.53,37.94,-15.73,35.91,-7.30,29.27
2008-04-21 15:00,-2.71,21.19,-7.90,23.30,-15.85,22.53,-26.70,21.99,-35.10,20.34,-37.74,18.76,-39.33,14.89,-37.70,14.05,-40.05,16.13,-39.49,18.31,-40.42,16.96,-39.81,23.56,-31.80,35.27,-17.22,47.41,-9.88,49.76,-9.75,48.02,-8.14,46.96,-4.43,45.21,-3.26,42.86,-4.08,39.54,-6.72,38.28,-3.70,34.10,0.41,28.49,6.41,18.65
2008-04-21 16:00,16.15,2.03,13.21,-1.22,8.09,1.97,-4.19,3.90,-10.36,7.07,-13.37,6.31,-15.25,5.29,-16.03,3.47,-16.09,3.34,-20.97,2.83,-20.95,7.35,-10.75,14.19,1.80,16.96,10.94,22.52,10.02,28.32,13.49,27.33,18.26,26.55,15.73,24.27,9.57,19.25,6.77,17.51,7.34,14.12,8.91,7.59,11.90,0.56,13.02,-3.91
2008-04-21 17:00,24.36,-21.90,16.38,-14.06,13.01,-10.42,11.60,-11.61,8.98,-11.29,10.41,-13.46,10.35,-16.53,9.26,-14.46,8.90,-15.63,12.57,-6.78,26.14,-1.27,36.65,2.31,39.73,6.14,38.75,6.56,34.52,7.30,28.72,6.39,29.32,6.47,32.22,-0.89,30.06,-12.51,31.60,-19.58,33.30,-19.66,33.85,-18.75,33.26,-17.57,31.67,-19.14
2008-04-21 18:00,17.83,-23.16,16.26,-19.88,14.22,-20.75,12.10,-23.95,10.80,-24.47,12.85,-22.34,11.58,-24.95,13.72,-20.80,25.49,-13.98,36.43,-16.98,39.57,-25.42,45.67,-28.08,49.25,-27.77,42.71,-23.78,38.69,-24.65,42.32,-30.42,41.70,-35.66,40.86,-42.55,43.88,-44.41,43.68,-44.79,42.97,-46.81,43.69,-47.42,41.74,-49.20,37.63,-45.58
2008-04-21 19:00,25.20,-17.96,24.44,-20.19,22.53,-21.44,20.94,-19.74,24.27,-16.05,21.85,-19.98,20.40,-25.59,29.46,-24.05,44.12,-25.54,46.63,-38.28,47.14,-44.10,53.80,-45.53,51.39,-48.51,44.83,-41.48,41.49,-39.93,46.49,-42.42,51.56,-44.47,54.90,-48.33,56.42,-51.10,48.66,-55.38,46.24,-59.62,44.54,-61.21,43.88,-58.80,35.64,-54.41
2008-04-21 20:00,21.64,-16.68,21.15,-17.47,21.26,-16.49,25.21,-16.38,28.52,-14.58,22.03,-17.92,23.74,-23.57,31.10,-24.89,31.37,-25.74,37.69,-37.89,37.06,-43.45,27.70,-42.78,24.89,-48.09,27.58,-45.66,28.98,-47.73,32.81,-47.55,39.20,-46.86,38.55,-51.06,32.92,-59.69,25.99,-62.97,23.90,-63.32,22.08,-61.91,21.90,-61.66,17.96,-54.31
2008-04-21 21:00,16.66,-9.04,4.40,-5.20,2.91,-0.22,2.76,0.89,2.55,-0.76,5.78,2.28,8.68,1.74,6.12,-1.40,-0.63,-5.88,5.27,-12.80,11.09,-18.50,13.24,-32.09,7.37,-37.34,0.86,-42.26,2.15,-51.19,4.30,-54.28,7.02,-53.93,9.22,-58.17,7.56,-62.80,2.78,-66.22,-1.46,-68.74,-4.12,-66.65,-3.15,-64.45,-4.96,-56.52
2008-04-21 22:00,6.78,-1.50,2.12,2.89,2.40,4.97,0.80,3.41,3.28,4.52,8.98,5.72,3.03,2.02,-4.89,-1.78,-1.87,-5.64,6.99,-11.30,8.32,-19.38,-0.61,-26.87,-5.06,-28.41,-8.15,-27.61,-13.92,-28.62,-15.47,-31.96,-13.91,-33.87,-12.96,-36.83,-16.61,-40.20,-19.06,-38.78,-22.87,-37.70,-22.40,-35.55,-22.22,-32.86,-18.36,-27.22
2008-04-21 23:00,-15.55,0.99,-21.48,1.82,-17.04,6.61,-15.60,8.02,-17.27,5.69,-13.26,5.30,-11.23,8.16,-17.98,3.99,-18.15,0.58,-14.34,-7.02,-22.35,-13.79,-29.90,-18.42,-34.43,-18.72,-36.20,-16.45,-40.27,-14.92,-40.40,-18.12,-41.29,-18.93,-44.58,-21.45,-46.39,-22.35,-47.12,-19.75,-47.89,-12.44,-45.11,-9.65,-43.12,-7.02,-35.49,-3.94
2008-04-22 00:00,-30.38,6.95,-35.73,11.84,-31.26,15.59,-27.47,15.55,-29.20,16.04,-27.67,17.16,-23.05,14.87,-25.39,14.64,-31.12,13.85,-29.37,9.05,-27.20,-0.65,-33.74,-8.10,-44.12,-11.75,-47.90,-10.76,-47.37,-8.17,-47.50,-2.86,-50.11,7.23,-57.26,9.87,-62.05,13.69,-65.27,17.48,-64.95,18.11,-62.04,18.21,-58.04,19.18,-45.87,18.57
2008-04-22 01:00,-50.67,10.93,-56.67,11.63,-52.67,13.23,-55.79,14.12,-58.11,16.11,-58.48,16.62,-55.51,13.90,-51.77,11.10,-52.70,10.07,-57.37,14.14,-56.13,14.54,-52.13,5.01,-59.55,-2.63,-69.72,6.50,-75.61,17.63,-73.56,25.64,-72.57,26.80,-69.97,29.84,-69.08,30.65,-67.04,29.21,-62.81,31.40,-58.74,32.81,-54.25,32.89,-41.76,32.91
2008-04-22 02:00,-55.48,7.29,-54.00,9.86,-52.84,15.07,-50.53,15.08,-49.67,15.67,-50.23,15.80,-48.70,14.30,-48.55,13.82,-46.93,17.60,-45.21,21.09,-50.29,16.62,-54.38,9.43,-63.30,12.66,-74.63,28.97,-73.29,41.17,-65.02,42.88,-61.30,45.02,-59.43,42.15,-56.98,40.42,-55.14,40.90,-48.49,42.41,-37.77,44.38,-31.59,43.42,-23.81,37.20
2008-04-22 03:00,-35.80,5.84,-36.34,11.44,-40.89,17.12,-40.30,18.88,-41.18,16.71,-43.14,16.92,-43.08,16.10,-44.38,16.21,-43.32,15.19,-44.29,21.17,-41.88,21.84,-37.78,14.97,-41.56,19.53,-44.37,34.17,-40.12,40.89,-32.76,40.53,-25.37,39.75,-20.99,38.21,-19.12,40.91,-21.89,42.02,-20.60,41.59,-14.97,33.53,-11.02,26.81,-9.40,21.77
2008-04-22 04:00,-7.01,3.52,-6.34,10.25,-8.23,13.22,-7.71,8.97,-7.30,9.00,-9.25,10.16,-9.04,11.49,-8.01,13.50,-9.94,13.30,-13.12,14.69,-14.93,14.11,-13.89,10.56,-8.96,13.19,-8.33,30.52,-2.74,35.04,1.40,32.27,7.24,28.48,10.23,27.02,8.85,30.67,10.69,28.22,15.22,20.32,15.84,13.49,11.56,10.43,9.72,6.38
2008-04-22 05:00,5.35,-8.47,14.49,-5.54,12.86,-4.06,11.87,-7.85,13.91,-5.72,14.32,-3.70,13.34,-0.65,10.31,0.27,6.46,3.75,3.89,3.25,1.01,-3.46,7.73,-1.51,17.12,15.69,31.17,21.98,32.84,23.67,30.21,18.10,28.16,12.72,29.56,7.71,32.60,5.11,32.88,-3.62,33.89,-12.33,31.30,-15.05,28.37,-14.10,21.63,-11.12
2008-04-22 06:00,19.68,-22.36,25.12,-18.72,23.40,-19.90,24.13,-17.25,24.08,-15.79,22.82,-12.84,19.99,-11.54,12.57,-18.86,13.25,-25.89,25.73,-18.63,42.27,-1.13,58.10,-2.04,55.99,-1.98,55.42,-7.10,51.74,-11.01,47.96,-15.27,47.70,-18.71,48.60,-23.15,51.66,-27.11,51.78,-30.11,50.60,-33.96,48.84,-35.68,48.36,-36.46,44.11,-37.30
2008-04-22 07:00,19.70,-23.08,27.47,-26.68,28.25,-24.85,25.80,-20.81,29.67,-19.78,27.79,-20.48,25.18,-22.48,27.08,-30.38,41.91,-21.94,60.09,-22.93,62.89,-26.76,66.15,-26.44,65.01,-29.44,59.01,-33.99,59.24,-39.59,63.33,-41.53,69.90,-44.99,70.55,-49.29,69.91,-52.54,65.57,-56.35,62.12,-56.41,60.98,-56.15,57.81,-54.12,52.39,-49.66
2008-04-22 08:00,23.80,-20.82,30.14,-22.57,29.25,-22.75,28.58,-20.34,30.68,-22.29,26.49,-26.57,24.60,-29.18,29.98,-25.35,46.04,-23.34,51.10,-32.22,51.40,-33.49,49.30,-37.74,46.44,-38.65,44.27,-45.65,50.07,-50.93,54.93,-51.68,57.70,-52.79,58.43,-55.39,54.80,-57.82,51.50,-61.29,48.12,-61.22,45.19,-62.90,43.26,-60.47,39.25,-56.82
2008-04-22 09:00,23.03,-10.88,35.04,-14.27,35.38,-15.00,29.30,-15.69,30.02,-18.93,25.83,-23.53,23.04,-24.32,25.07,-26.08,25.83,-23.85,38.23,-23.23,46.72,-30.06,35.83,-39.64,25.64,-43.23,22.51,-45.92,27.06,-46.66,30.64,-48.66,30.81,-53.12,28.96,-54.56,23.40,-57.18,21.08,-55.20,18.63,-53.78,17.36,-51.77,18.90,-46.76,18.43,-43.34
2008-04-22 10:00,19.28,-0.85,21.05,-6.68,18.63,-8.62,16.78,-12.68,14.10,-12.17,13.29,-10.33,11.01,-11.06,13.54,-13.72,17.05,-19.42,11.27,-19.07,18.34,-20.47,20.74,-28.63,7.12,-33.95,6.27,-35.90,-4.52,-36.95,-10.76,-43.05,-7.20,-47.89,-5.69,-48.67,-12.31,-49.32,-16.30,-43.78,-14.55,-40.38,-13.23,-37.96,-11.03,-36.31,-9.00,-33.14
2008-04-22 11:00,2.47,3.10,-0.36,-1.17,-4.16,-4.38,-5.15,-4.91,-7.20,-5.04,-7.89,-3.90,-5.78,-7.53,-1.96,-11.55,-4.60,-13.14,-6.82,-15.74,-6.57,-22.06,-12.33,-19.82,-12.33,-16.56,-17.56,-18.24,-32.06,-11.03,-40.75,-9.83,-43.42,-13.94,-43.78,-17.73,-43.16,-19.32,-41.26,-13.14,-39.14,-9.94,-35.38,-4.64,-34.27,-1.87,-25.71,-2.37
2008-04-22 12:00,-14.36,19.86,-26.43,11.99,-24.98,8.47,-22.51,3.06,-28.80,1.05,-30.40,1.79,-31.64,4.65,-35.03,3.77,-35.67,3.46,-36.47,2.36,-37.02,-9.99,-38.84,-6.27,-42.01,-1.31,-44.70,4.13,-49.79,13.42,-54.20,14.74,-58.65,15.20,-60.09,17.05,-60.65,17.81,-57.88,16.39,-55.26,15.76,-48.84,18.66,-44.27,20.13,-31.70,19.23
2008-04-22 13:00,-22.16,15.36,-32.27,7.28,-42.70,4.77,-41.65,0.18,-40.09,-2.05,-42.66,0.38,-43.50,1.68,-41.04,3.21,-40.45,11.17,-39.50,22.92,-39.10,29.88,-43.87,22.15,-45.39,7.90,-55.32,11.02,-67.51,26.11,-65.34,19.67,-63.64,16.01,-61.55,19.63,-63.22,25.18,-63.00,22.52,-54.66,21.41,-43.78,22.18,-38.55,25.85,-23.94,28.13
2008-04-22 14:00,-33.44,15.84,-44.80,12.92,-46.76,9.56,-45.54,6.07,-45.63,8.66,-50.21,12.13,-50.11,12.79,-47.45,12.70,-48.32,17.04,-46.06,24.70,-37.95,33.82,-38.29,32.24,-52.26,32.90,-60.66,39.76,-70.04,43.79,-69.43,50.39,-63.41,53.90,-62.89,49.34,-56.55,39.40,-56.77,34.18,-51.33,39.50,-42.09,46.04,-31.49,49.34,-18.73,42.30
2008-04-22 15:00,-29.70,-3.66,-34.99,-1.57,-34.77,-1.61,-36.78,-3.20,-33.29,-4.91,-31.59,-5.31,-31.24,-5.41,-28.88,-0.66,-26.70,10.23,-24.69,18.02,-34.83,30.62,-41.83,43.28,-50.93,58.22,-54.69,58.80,-52.08,51.65,-53.07,59.32,-49.63,64.94,-44.48,63.96,-47.81,57.96,-44.48,47.27,-34.20,41.74,-25.80,40.13,-14.21,33.14,-11.21,27.38